Погода в Джераше

Иордания     32°16′30″N   35°53′54″E
темп.,
°C
ветер,
м/с
пор.,
м/с
влажн.,
%
обл.,
%
осадки,
мм/ч
давл.,
гПа
погр.,
м
10 августа, ср
ср1000:00+22зсз24620 0.0 1009276
03:00+20зсз23750 0.0 1008155
06:00+19зсз22850 0.0 100858
09:00+24зсз46630 0.0 1008705
12:00+29зсз56390 0.0 10071043
15:00+31зсз88300 0.0 10061330
18:00+28зсз88390 0.0 1006973
21:00+23зсз57640 0.0 1007498
11 августа, чт
чт1100:00+22зсз35790 0.0 1007354
03:00+20з23895 0.0 1007189
06:00+20з22933 0.0 100836
09:00+24з35620 0.0 1008637
12:00+30зсз55350 0.0 10071151
15:00+32зсз78280 0.0 10061465
18:00+30зсз88340 0.0 1006962
21:00+25зсз34540 0.0 1008254
12 августа, пт
пт1200:00+23зсз33600 0.0 100863
03:00+21з22590 0.0 100811
06:00+21зсз22560 0.0 100811
09:00+26зсз12320 0.0 1008475
12:00+32з44190 0.0 10081082
15:00+34зсз66210 0.0 10061205
18:00+31зсз66260 0.0 1006738
21:00+26зсз34380 0.0 1008184
13 августа, сб
сб1300:00+23з33440 0.0 100854
03:00+22з22450 0.0 100818
06:00+20з22540 0.0 100819
09:00+25з34360 0.0 1008510
12:00+30зсз55260 0.0 1007912
15:00+33зсз78210 0.0 10061185
18:00+29зсз67310 0.0 1006762
21:00+24з35560 0.0 1008290
14 августа, вс
вс1400:00+21з23780 0.0 1008136
03:00+20з23910 0.0 100772
06:00+19з22957 0.0 100832
09:00+24з34620 0.0 1008555
12:00+30з55350 0.0 1007957
15:00+32зсз87290 0.0 10051275
18:00+29зсз67370 0.0 1006816
21:00+24зсз34600 0.0 1007224